EW3456 Weather Reports


time (UTC)temp
C
wind
direction
speed
KPH
gust
KPH
rain 1hr
cm
rain 24hr
cm
rain mn
cm
humidity
%
barometer
mb
20260505184602 25 16 0.0 1.6 0.00 0.00 0.00 43 1014.4
20260505183602 25 307 0.0 3.2 0.00 0.00 0.00 39 1014.5
20260505181602 26 256 0.0 3.2 0.00 0.00 0.00 40 1015.2
20260505180602 25 21 0.0 4.8 0.00 0.00 0.00 40 1015.3
20260505175601 25 254 0.0 4.8 0.00 0.00 0.00 40 1015.6
20260505174602 25 278 0.0 3.2 0.00 0.00 0.00 43 1015.8
20260505173601 25 209 0.0 4.8 0.00 0.00 0.00 42 1015.7
20260505172601 24 260 0.0 3.2 0.00 0.00 0.00 43 1015.8
20260505171602 25 263 1.6 3.2 0.00 0.00 0.00 41 1015.7
20260505170602 24 186 0.0 3.2 0.00 0.00 0.00 40 1015.5
20260505165602 24 165 0.0 3.2 0.00 0.00 0.00 42 1015.6
20260505164602 23 290 0.0 4.8 0.00 0.00 0.00 41 1015.8
20260505162602 23 206 0.0 6.4 0.00 0.00 0.00 43 1016.1
20260505161601 23 249 0.0 6.4 0.00 0.00 0.00 49 1016.5
20260505152601 22 298 0.0 3.2 0.00 0.00 0.00 59 1016.8
20260505151601 22 38 0.0 3.2 0.00 0.00 0.00 62 1016.8
20260505150601 21 64 0.0 1.6 0.00 0.00 0.00 63 1016.8
20260505140602 18 295 0.0 1.6 0.00 0.00 0.00 76 1016.5
20260505124601 12 86 0.0 0.0 0.00 0.00 0.00 92 1016.4
20260505123601 12 86 0.0 0.0 0.00 0.00 0.00 92 1016.3
20260505122602 12 86 0.0 0.0 0.00 0.00 0.00 92 1016.4
20260505121601 12 86 0.0 0.0 0.00 0.00 0.00 92 1016.2
20260505120602 11 86 0.0 0.0 0.00 0.00 0.00 92 1016.1
20260505115602 11 86 0.0 0.0 0.00 0.00 0.00 91 1015.9
20260505114601 11 86 0.0 0.0 0.00 0.00 0.00 91 1015.8
20260505113601 11 86 0.0 1.6 0.00 0.00 0.00 91 1015.9
20260505112602 11 86 0.0 0.0 0.00 0.00 0.00 91 1015.9
20260505111601 11 86 0.0 0.0 0.00 0.00 0.00 90 1015.7
20260505110601 11 86 0.0 0.0 0.00 0.00 0.00 90 1015.5
20260505101602 11 86 0.0 0.0 0.00 0.00 0.00 89 1015.5
20260505100602 11 86 0.0 0.0 0.00 0.00 0.00 89 1015.5
20260505095602 11 88 0.0 0.0 0.00 0.00 0.00 89 1015.4
20260505093601 11 88 0.0 0.0 0.00 0.00 0.00 88 1015.4
20260505092601 11 88 0.0 0.0 0.00 0.00 0.00 88 1015.3
20260505091601 11 88 0.0 0.0 0.00 0.00 0.00 88 1015.2
20260505085602 11 88 0.0 0.0 0.00 0.00 0.00 87 1015.2
20260505084602 11 88 0.0 0.0 0.00 0.00 0.00 87 1015.0
20260505083601 11 88 0.0 0.0 0.00 0.00 0.00 87 1014.8
20260505082602 12 88 0.0 0.0 0.00 0.00 0.00 87 1014.8
20260505081601 12 88 0.0 0.0 0.00 0.00 0.00 87 1014.9
20260505080601 12 88 0.0 0.0 0.00 0.00 0.00 87 1014.7
20260505075601 12 88 0.0 0.0 0.00 0.00 0.00 86 1014.7
20260505073601 12 88 0.0 0.0 0.00 0.00 0.00 86 1014.6
20260505072601 12 88 0.0 0.0 0.00 0.00 0.00 86 1014.6
20260505071602 12 88 0.0 0.0 0.00 0.00 0.00 86 1014.6
20260505070602 12 88 0.0 0.0 0.00 0.00 0.00 85 1014.5
20260505065601 12 88 0.0 0.0 0.00 0.00 0.00 84 1014.5
20260505064601 12 88 0.0 0.0 0.00 0.00 0.00 83 1014.5
20260505062601 12 88 0.0 0.0 0.00 0.00 0.00 82 1014.6
20260505061602 12 88 0.0 0.0 0.00 0.00 0.00 81 1014.7
20260505060602 12 88 0.0 0.0 0.00 0.00 0.00 81 1014.7
20260505055601 12 88 0.0 0.0 0.00 0.00 0.00 80 1014.8
20260505054601 13 88 0.0 0.0 0.00 0.00 0.00 81 1014.9
20260505053602 13 88 0.0 0.0 0.00 0.00 0.00 81 1014.9
20260505052601 13 88 0.0 0.0 0.00 0.00 0.00 81 1015.0
20260505051601 13 113 0.0 1.6 0.00 0.00 0.00 81 1014.9
20260505050601 13 97 0.0 0.0 0.00 0.00 0.00 82 1014.9
20260505041601 14 40 0.0 0.0 0.00 0.00 0.00 82 1015.0
20260505040602 14 40 0.0 0.0 0.00 0.00 0.00 82 1015.1
20260505035602 15 40 0.0 0.0 0.00 0.00 0.00 81 1015.1
20260505032602 15 40 0.0 0.0 0.00 0.00 0.00 77 1015.2
20260505031601 15 40 0.0 0.0 0.00 0.00 0.00 77 1015.1
20260505030602 16 40 0.0 0.0 0.00 0.00 0.00 77 1015.1
20260505024602 16 40 0.0 0.0 0.00 0.00 0.00 74 1015.0
20260505023601 16 40 0.0 0.0 0.00 0.00 0.00 73 1015.0
20260505022601 17 40 0.0 0.0 0.00 0.00 0.00 72 1015.0
20260505021601 17 40 0.0 0.0 0.00 0.00 0.00 71 1015.0
20260505013601 18 40 0.0 0.0 0.00 0.00 0.00 66 1014.6
20260505012601 18 40 0.0 0.0 0.00 0.00 0.00 66 1014.5
20260505011602 19 40 0.0 0.0 0.00 0.00 0.00 65 1014.5
20260505010602 20 29 0.0 0.0 0.00 0.00 0.00 64 1014.4
20260505005601 20 29 0.0 0.0 0.00 0.00 0.00 62 1014.3
20260505004602 20 29 0.0 0.0 0.00 0.00 0.00 60 1014.1
20260505003601 20 29 0.0 0.0 0.00 0.00 0.00 58 1014.0
20260505002601 21 29 0.0 0.0 0.00 0.00 0.00 55 1014.0
20260504235601 21 25 0.0 0.0 0.00 0.00 0.00 57 1013.8
20260504234601 21 345 0.0 0.0 0.00 0.00 0.00 56 1013.7
20260504233601 21 345 0.0 0.0 0.00 0.00 0.00 54 1013.6
20260504232601 21 345 0.0 0.0 0.00 0.00 0.00 53 1013.4
20260504230601 22 345 0.0 0.0 0.00 0.00 0.00 50 1013.5
20260504225602 22 345 0.0 0.0 0.00 0.00 0.00 49 1013.5
20260504224601 22 345 0.0 0.0 0.00 0.00 0.00 49 1013.5
20260504223601 22 345 0.0 0.0 0.00 0.00 0.00 47 1013.6
20260504220601 23 320 0.0 0.0 0.00 0.00 0.00 43 1013.6
20260504214602 23 23 0.0 0.0 0.00 0.00 0.00 41 1013.6
20260504213601 23 358 0.0 1.6 0.00 0.00 0.00 40 1013.5
20260504212602 24 340 0.0 1.6 0.00 0.00 0.00 38 1013.5
20260504211601 24 17 0.0 3.2 0.00 0.00 0.00 41 1013.5
20260504210602 23 73 0.0 3.2 0.00 0.00 0.00 41 1013.5
20260504205602 24 85 0.0 3.2 0.00 0.00 0.00 37 1013.6
20260504204601 24 16 0.0 1.6 0.00 0.00 0.00 37 1013.6
20260504203602 24 260 0.0 1.6 0.00 0.00 0.00 37 1013.7
20260504202602 24 144 0.0 3.2 0.00 0.00 0.00 38 1013.6
20260504201601 24 211 0.0 3.2 0.00 0.00 0.00 36 1013.7
20260504200602 24 100 0.0 4.8 0.00 0.00 0.00 40 1013.8
20260504195601 24 46 0.0 3.2 0.00 0.00 0.00 42 1014.1
20260504194601 24 97 1.6 4.8 0.00 0.00 0.00 40 1014.5
20260504193602 24 98 0.0 4.8 0.00 0.00 0.00 41 1014.6
20260504191602 23 145 0.0 1.6 0.00 0.00 0.00 40 1014.9
20260504190602 23 113 0.0 4.8 0.00 0.00 0.00 39 1015.0
20260504185602 23 77 0.0 3.2 0.00 0.00 0.00 40 1015.1